Weather Roundup
Issued by NWS

Home | Current Version | Previous Version | Text Only | Print | Product List | Glossary On
Versions: 1 2 3 4 5 6 7 8 9 10 11 12 13 14 15 16 17 18 19 20 21 22 23 24 25 26 27 28 29 30 31 32 33 34 35 36 37 38 39 40 41 42 43 44 45 46 47 48 49 50
000
NZUS93 KARX 030610
HRRWXR

CURRENT HOURLY OBSERVATIONS ACROSS
MUCH OF THE UPPER MISSISSIPPI VALLEY
NATIONAL WEATHER SERVICE LA CROSSE WI
1200 AM CST TUE MAR 03 2015


...SOUTHEAST MINNESOTA...


CITY           SKY/WX    TMP DP  RH WIND       PRES   REMARKS
ROCHESTER      CLOUDY    20  13  74 SE12      30.04F WCI   8
ROCHESTER/MAYO CLOUDY    21  11  65 SE7       30.05F WCI  13
WINONA         CLOUDY    27  14  59 SE6       30.12F WCI  20
AUSTIN         CLOUDY    21  16  79 SE8       30.03F WCI  12
ALBERT LEA     CLOUDY    21  16  79 SE10      30.01F WCI  10
DODGE CENTER   CLOUDY    21  16  79 SE10      30.02F WCI  10
PRESTON        CLOUDY    21  12  69 SE6       30.06F WCI  13
OWATONNA       CLOUDY    21  12  68 SE13      30.01F WCI   9
FARIBAULT      CLOUDY    21  12  68 SE7       30.03F WCI  13
$$

...ELSEWHERE IN MINNESOTA...


CITY           SKY/WX    TMP DP  RH WIND       PRES   REMARKS
MINNEAPOLIS    CLOUDY    22  11  62 SE7       30.05F WCI  13
INTNL FALLS    CLOUDY    24   8  50 S9G20     29.81F WCI  14
DULUTH         CLOUDY    20   4  50 S8        29.95F WCI  10
RED WING       CLOUDY    23   7  50 SE7       30.08F WCI  15
REDWOOD FALLS  FLURRIES  24  18  77 SE15      29.95F WCI  11
MANKATO        CLOUDY    21  12  68 SE12      30.00F WCI   9
FAIRMONT       CLOUDY    23  16  74 SE14      29.96F WCI  11
$$

...SOUTHWEST WISCONSIN...


CITY           SKY/WX    TMP DP  RH WIND       PRES   REMARKS
LA CROSSE      CLOUDY    26  14  60 S8        30.13F WCI  18
PRAIRIE DU CHI CLOUDY    25  16  67 E7        30.14F WCI  18
BOSCOBEL       CLOUDY    26  15  63 CALM      30.15F
LONE ROCK      CLOUDY    24  16  71 SE5       30.17F WCI  18
PLATTEVILLE    CLOUDY    24  19  81 E9        30.13F WCI  14
FORT MC COY    CLOUDY    24  14  66 S7        30.14F WCI  16
CAMP DOUGLAS   FAIR      24  17  74 SE6       30.14F WCI  17
VIROQUA        CLOUDY    22  16  75 SE8       30.10F WCI  13
WIS DELLS      CLOUDY    23  15  73 S6        30.14F WCI  16
$$

...ELSEWHERE IN WISCONSIN...


CITY           SKY/WX    TMP DP  RH WIND       PRES   REMARKS
MILWAUKEE      CLOUDY    26  16  65 SW8       30.23F WCI  18
MADISON        CLOUDY    24  15  68 S10       30.17F WCI  14
GREEN BAY      CLOUDY    24  17  74 S6        30.19F WCI  17
EAU CLAIRE     CLOUDY    23  11  60 S9        30.09F WCI  13
BLACK RVR FLS  CLOUDY    25  13  58 S6        30.13F WCI  18
MEDFORD        CLOUDY    19  11  68 S8        30.07F WCI   9
WAUSAU         CLOUDY    23   9  55 S9        30.09F WCI  13
WIS RAPIDS     LGT SNOW  21  15  78 S8        30.15F WCI  11
MARSHFIELD     CLOUDY    24  10  55 S10       30.10F WCI  14
RICE LAKE      CLOUDY    22   9  57 S7        30.08F WCI  13
$$

...NORTHEAST IOWA...


CITY           SKY/WX    TMP DP  RH WIND       PRES   REMARKS
DECORAH        CLOUDY    23  16  74 SE9       30.06F WCI  13
MASON CITY     CLOUDY    23  16  74 SE14      30.02F WCI  11
CHARLES CITY   CLOUDY    23  18  80 SE14      30.04F WCI  11
OELWEIN        CLOUDY    23  19  86 SE14      30.07F WCI  11
$$

...ELSEWHERE IN IOWA...


CITY           SKY/WX    TMP DP  RH WIND       PRES   REMARKS
DES MOINES     CLOUDY    30  19  63 SE12      30.01F WCI  20
IOWA CITY      CLOUDY    27  20  75 SE13      30.12F WCI  16
FORT DODGE     FAIR      27  18  69 SE10G17   29.98F WCI  17
$$

...NORTHERN ILLINOIS...


CITY           SKY/WX    TMP DP  RH WIND       PRES   REMARKS
CHICAGO-OHARE  CLOUDY    26  15  63 S9        30.22F WCI  17
CHICAGO-MIDWAY CLOUDY    28  16  60 SE7       30.24F WCI  21
MOLINE         FAIR      26  18  71 SE13      30.14F WCI  15
ROCKFORD       CLOUDY    25  16  68 SE7       30.21F WCI  17
PEORIA         MIX PCPN  28  16  60 SE8       30.20F WCI  20
$$

NOTE: "FAIR" INDICATES FEW OR NO CLOUDS BELOW 12,000 FEET WITH NO
SIGNIFICANT WEATHER AND/OR OBSTRUCTIONS TO VISIBILITY. WIND
SPEEDS ARE IN MILES-PER-HOUR.



USA.gov is the U.S. government's official web portal to all federal, state and local government web resources and services.